Regional Weather Roundup
Issued by NWS Cleveland, OH

Home | Current Version | Previous Version | Graphics & Text | Print | Product List | Glossary On
Versions: 1 2 3 4 5 6 7 8 9 10 11 12 13 14 15 16 17 18 19 20 21 22 23 24 25 26 27 28 29 30 31 32 33 34 35 36 37 38 39 40 41 42 43 44 45 46 47 48 49 50
000
ASUS41 KCLE 041502
RWRCLE
OHIO REGIONAL WEATHER ROUNDUP
NATIONAL WEATHER SERVICE CLEVELAND, OH
1100 AM EDT MON MAY 04 2015

NOTE: "FAIR" INDICATES FEW OR NO CLOUDS BELOW 12,000 FEET WITH NO
SIGNIFICANT WEATHER AND/OR OBSTRUCTIONS TO VISIBILITY.

OHZ001>008-015>018-024>027-034-035-043-044-041600-
   NORTHWEST OHIO

CITY           SKY/WX    TMP DP  RH WIND       PRES   REMARKS
DEFIANCE       LGT RAIN  62  56  80 SW13G22   30.12R
FINDLAY        PTSUNNY   76  49  38 SW20G31   30.10R
TOLEDO EXPRESS CLOUDY    72  50  45 SW25G36   30.07R
TOLEDO EXEC    PTSUNNY   75  50  41 SW21G30   30.06S
LIMA           PTSUNNY   72  51  47 W21G28    30.13R
$$

OHZ009>014-019>023-028>033-038-089-041600-
   NORTHEAST OHIO

CITY           SKY/WX    TMP DP  RH WIND       PRES   REMARKS
CLE-HOPKINS    MOSUNNY   75  50  41 SW16G22   30.12S
CLE-LAKEFRONT  MOSUNNY   77  49  37 SW21G28   30.09S
CUY CO. ARPT   MOSUNNY   77  50  38 S17G23    30.12S
LORAIN-ELYRIA  MOSUNNY   76  50  40 SW22G30   30.11S
ASHTABULA      SUNNY     73  45  36 SW13G25   30.13S
AKRON-CANTON   MOSUNNY   76  48  37 SW14      30.16S
WOOSTER        SUNNY     74  49  41 SW18G24   30.15S
MANSFIELD      MOSUNNY   75  49  39 SW18G26   30.14S
YOUNGSTOWN     MOSUNNY   75  46  35 S13G25    30.15S
$$

OHZ042-051>053-060>062-070>072-077>081-041600-
  SOUTHWEST OHIO

CITY           SKY/WX    TMP DP  RH WIND       PRES   REMARKS
CINC-COVINGTON MOSUNNY   73  53  49 SW9       30.20R
CINC-LUNKEN    MOSUNNY   74  54  49 SW9       30.19S
HAMILTON       MOSUNNY   73  52  47 W10G18    30.19R
DAYTON         PTSUNNY   74  53  48 SW14      30.17R
WRIGHT-PAT AFB NOT AVBL
DAYTON GENERAL SUNNY     73  50  44 SW20G26   30.17S
WILMINGTON     SUNNY     73  52  47 SW18G24   30.19R
$$

OHZ036-037-039>041-045>050-054>059-063>069-073>076-082>088-041600-
  CENTRAL AND SOUTHEAST OHIO

CITY           SKY/WX    TMP DP  RH WIND       PRES   REMARKS
COLUMBUS       MOSUNNY   72  51  47 SW12      30.17S
OSU AIRPORT    MOSUNNY   75  50  41 SW17      30.17R
BOLTON FIELD   SUNNY     75  54  46 SW12      30.18S
RICKENBACK AFB SUNNY     73  52  46 SW12      30.18S
NEWARK         SUNNY     74  52  46 SW13      30.17S
MARION         PTSUNNY   74  50  42 SW17      30.14S
LANCASTER      SUNNY     75  52  44 SW13G21   30.19R
ZANESVILLE     SUNNY     74  47  38 SW12G20   30.18S
NEW PHILLY     SUNNY     77  45  32 W13G18    30.18S
$$



USA.gov is the U.S. government's official web portal to all federal, state and local government web resources and services.